Date String (YYYY-MM-DD hh:mm:ss) UTC,Instrument flags,Ambient pressure (hPa),Sample flow (lpm),Bypass flow (lpm),Sample temperature (°C),Ambient temperature (°C),ASC tube jacket temperature (°C),LED temperature (°C),Box temperature (°C),Sample RH (%),Span deviation,Mass concentration (μg/m³),Mass concentration (μg/m³),Mass concentration (μg/m³)
DateTimeUTC,F1_M11,P_M11,Q1_M11,Q2_M11,T1_M11,T2_M11,T3_M11,T4_M11,T5_M11,U1_M11,ZSPAN_M11,X0_M11,X2_M11,X1_M11
2022-05-11 09:00:00,,0822.9,5.00,0.00,26.8,26.0,00.0,35.9,28.6,13.5,0000.0,0018.35,0004.94,0002.41
2022-05-11 09:01:00,,0822.9,5.01,0.00,26.8,26.0,00.0,35.9,28.6,13.5,0000.0,0018.61,0004.91,0002.41
2022-05-11 09:02:00,,0822.9,4.99,0.00,26.8,26.1,00.0,35.9,28.6,13.6,0000.0,0018.87,0004.97,0002.40
2022-05-11 09:03:00,,0823.0,5.00,0.00,26.8,26.0,00.0,35.9,28.6,13.6,0000.0,0019.93,0004.96,0002.43
2022-05-11 09:04:00,,0823.0,5.01,0.00,26.8,26.0,00.0,35.8,28.6,13.6,0000.0,0019.71,0004.92,0002.44
2022-05-11 09:05:00,,0823.0,4.99,0.00,26.8,26.0,00.0,35.8,28.6,13.6,0000.0,0019.75,0004.93,0002.46
2022-05-11 09:06:00,,0823.0,5.01,0.00,26.8,26.0,00.0,35.8,28.6,13.6,0000.0,0020.00,0004.97,0002.47
2022-05-11 09:07:00,,0822.9,4.99,0.00,26.8,26.1,00.0,35.8,28.6,13.6,0000.0,0019.12,0005.00,0002.47
2022-05-11 09:08:00,,0823.0,5.00,0.00,26.8,26.1,00.0,35.8,28.6,13.8,0000.0,0019.28,0005.06,0002.47
2022-05-11 09:09:00,,0823.1,4.99,0.00,26.8,26.1,00.0,35.8,28.7,14.5,0000.0,0019.85,0005.05,0002.48
2022-05-11 09:10:00,,0823.1,5.00,0.00,26.8,26.2,00.0,35.8,28.7,13.9,0000.0,0020.31,0005.00,0002.49
2022-05-11 09:11:00,,0823.1,5.00,0.00,26.9,26.2,00.0,35.8,28.8,13.8,0000.0,0020.14,0005.04,0002.49
2022-05-11 09:12:00,,0823.1,4.99,0.00,26.9,26.3,00.0,35.8,28.8,14.2,0000.0,0019.91,0005.08,0002.47
2022-05-11 09:13:00,,0823.1,5.01,0.00,26.9,26.3,00.0,35.8,28.8,14.0,0000.0,0019.39,0005.04,0002.47
2022-05-11 09:14:00,,0823.2,4.99,0.00,27.0,26.4,00.0,35.9,28.9,13.9,0000.0,0019.15,0005.06,0002.45
2022-05-11 09:15:00,,0823.2,5.01,0.00,27.0,26.4,00.0,35.9,28.9,14.2,0000.0,0019.67,0005.15,0002.47
2022-05-11 09:16:00,,0823.2,5.00,0.00,27.0,26.4,00.0,35.9,29.0,14.1,0000.0,0020.16,0005.23,0002.47
2022-05-11 09:17:00,,0823.2,5.00,0.00,27.1,26.5,00.0,35.9,29.0,14.3,0000.0,0019.72,0005.20,0002.44
2022-05-11 09:18:00,,0823.2,4.99,0.00,27.1,26.5,00.0,35.9,29.0,14.3,0000.0,0018.87,0005.15,0002.46
2022-05-11 09:19:00,,0823.2,5.01,0.00,27.1,26.5,00.0,35.9,29.0,14.5,0000.0,0018.67,0005.12,0002.46
2022-05-11 09:20:00,,0823.2,4.99,0.00,27.1,26.5,00.0,36.0,29.1,14.4,0000.0,0017.55,0005.14,0002.48
2022-05-11 09:21:00,,0823.3,5.00,0.00,27.2,26.5,00.0,36.0,29.1,14.3,0000.0,0017.40,0005.19,0002.48
2022-05-11 09:22:00,,0823.2,5.00,0.00,27.2,26.5,00.0,36.0,29.1,14.1,0000.0,0017.31,0005.17,0002.47
2022-05-11 09:23:00,,0823.3,5.00,0.00,27.2,26.5,00.0,36.0,29.1,14.2,0000.0,0017.80,0005.17,0002.49
2022-05-11 09:24:00,,0823.3,5.01,0.00,27.2,26.6,00.0,36.0,29.1,14.3,0000.0,0018.86,0005.24,0002.49
2022-05-11 09:25:00,,0823.3,5.00,0.00,27.2,26.6,00.0,36.0,29.1,14.2,0000.0,0018.79,0005.34,0002.52
2022-05-11 09:26:00,,0823.3,5.00,0.00,27.2,26.6,00.0,36.0,29.1,14.0,0000.0,0018.46,0005.45,0002.55
2022-05-11 09:27:00,,0823.4,5.00,0.00,27.3,26.6,00.0,36.1,29.1,14.0,0000.0,0020.83,0005.52,0002.55
2022-05-11 09:28:00,,0823.4,5.00,0.00,27.3,26.6,00.0,36.1,29.1,14.1,0000.0,0022.53,0005.62,0002.57
2022-05-11 09:29:00,,0823.4,5.01,0.00,27.3,26.6,00.0,36.1,29.2,14.1,0000.0,0023.52,0005.84,0002.58
2022-05-11 09:30:00,,0823.4,5.00,0.00,27.3,26.6,00.0,36.1,29.2,14.2,0000.0,0023.92,0006.05,0002.62
2022-05-11 09:31:00,,0823.4,4.99,0.00,27.3,26.6,00.0,36.1,29.2,14.3,0000.0,0025.22,0006.25,0002.64
2022-05-11 09:32:00,,0823.4,5.01,0.00,27.3,26.7,00.0,36.1,29.2,14.3,0000.0,0026.05,0006.38,0002.66
2022-05-11 09:33:00,,0823.4,4.98,0.00,27.3,26.7,00.0,36.2,29.2,14.3,0000.0,0028.16,0006.62,0002.71
2022-05-11 09:34:00,,0823.3,5.01,0.00,27.4,26.7,00.0,36.2,29.2,14.1,0000.0,0029.87,0006.77,0002.74
2022-05-11 09:35:00,,0823.3,5.00,0.00,27.4,26.7,00.0,36.2,29.3,14.1,0000.0,0032.34,0006.94,0002.79
2022-05-11 09:36:00,,0823.3,5.00,0.00,27.4,26.7,00.0,36.2,29.2,14.2,0000.0,0033.44,0007.02,0002.81
2022-05-11 09:37:00,,0823.3,5.00,0.00,27.4,26.7,00.0,36.2,29.3,14.2,0000.0,0033.62,0007.02,0002.80
2022-05-11 09:38:00,,0823.4,5.00,0.00,27.4,26.7,00.0,36.2,29.3,14.1,0000.0,0032.03,0007.05,0002.80
2022-05-11 09:39:00,,0823.5,5.01,0.00,27.4,26.7,00.0,36.2,29.3,14.1,0000.0,0030.87,0007.11,0002.80
2022-05-11 09:40:00,,0823.5,5.00,0.00,27.5,26.7,00.0,36.3,29.3,14.0,0000.0,0030.53,0006.96,0002.78
2022-05-11 09:41:00,,0823.5,5.00,0.00,27.5,26.7,00.0,36.3,29.3,14.0,0000.0,0029.31,0006.71,0002.74
2022-05-11 09:42:00,,0823.5,5.00,0.00,27.5,26.7,00.0,36.3,29.3,14.0,0000.0,0028.64,0006.47,0002.71
2022-05-11 09:43:00,,0823.5,4.99,0.00,27.5,26.7,00.0,36.3,29.3,14.0,0000.0,0028.22,0006.29,0002.68
2022-05-11 09:44:00,,0823.5,5.01,0.00,27.5,26.7,00.0,36.3,29.3,14.0,0000.0,0026.48,0006.21,0002.67
2022-05-11 09:45:00,,0823.6,5.01,0.00,27.5,26.8,00.0,36.3,29.4,14.1,0000.0,0024.86,0006.20,0002.64
2022-05-11 09:46:00,,0823.6,4.99,0.00,27.5,26.8,00.0,36.4,29.4,14.2,0000.0,0023.07,0006.14,0002.64
2022-05-11 09:47:00,,0823.6,5.00,0.00,27.6,26.8,00.0,36.4,29.4,14.3,0000.0,0025.32,0006.05,0002.63
2022-05-11 09:48:00,,0823.6,5.00,0.00,27.6,26.8,00.0,36.4,29.4,14.4,0000.0,0025.45,0006.00,0002.64
2022-05-11 09:49:00,,0823.6,4.99,0.00,27.6,26.8,00.0,36.4,29.4,14.3,0000.0,0024.62,0005.93,0002.64
2022-05-11 09:50:00,,0823.6,5.01,0.00,27.6,26.8,00.0,36.4,29.4,14.3,0000.0,0024.33,0005.81,0002.64
2022-05-11 09:51:00,,0823.6,5.01,0.00,27.6,26.8,00.0,36.4,29.4,14.2,0000.0,0024.87,0005.82,0002.66
2022-05-11 09:52:00,,0823.6,4.99,0.00,27.6,26.8,00.0,36.4,29.5,14.2,0000.0,0025.82,0005.87,0002.65
2022-05-11 09:53:00,,0823.7,5.00,0.00,27.6,26.8,00.0,36.5,29.4,14.2,0000.0,0025.50,0005.88,0002.65
2022-05-11 09:54:00,,0823.7,5.01,0.00,27.6,26.8,00.0,36.5,29.5,14.2,0000.0,0025.22,0005.95,0002.66
2022-05-11 09:55:00,,0823.7,5.00,0.00,27.6,26.9,00.0,36.5,29.4,14.2,0000.0,0025.42,0005.87,0002.67
2022-05-11 09:56:00,,0823.7,4.99,0.00,27.7,26.9,00.0,36.5,29.5,14.2,0000.0,0025.28,0005.81,0002.67
2022-05-11 09:57:00,,0823.6,5.00,0.00,27.7,26.9,00.0,36.5,29.5,14.2,0000.0,0025.06,0005.73,0002.66
2022-05-11 09:58:00,,0823.7,5.00,0.00,27.7,26.9,00.0,36.5,29.5,14.2,0000.0,0021.52,0005.70,0002.64
2022-05-11 09:59:00,,0823.6,5.00,0.00,27.7,26.9,00.0,36.5,29.5,14.2,0000.0,0020.20,0005.57,0002.64
